Wind_Speed
4 4 2 5 6 6 5 7 8 7 7 7 7 6 6 7 6 6 6 6 5 6 6 5 1 2 3 3 5 8 14 18 20 23 24 24 26 27 28 29 30 31 31 32 32 33 33 34 37 38 36 35 33 32 31 29 27 27 30 32 33 32 31 30 30 29 28 27 25 24 22 21 20 20 19 17 16 14 11 11 11 11 11 12 10 8 7
2 6 3 5 8 5 5 4 3 7 8 9 7 5 5 6 5 5 7 7 7 7 6 4 1 1 2 5 8 11 15 18 20 22 23 23 25 28 30 31 32 33 34 34 33 34 35 36 37 37 37 36 35 33 31 30 29 30 32 34 34 33 32 31 30 30 28 27 25 23 22 21 21 20 17 16 14 11 11 11 12 13 13 11 9 8 7
4 7 6 9 11 9 8 7 6 4 5 5 4 3 3 4 1 2 5 7 6 6 4 1 4 6 8 7 9 12 15 19 21 22 22 24 26 27 29 30 31 32 33 33 32 33 34 35 36 36 36 37 36 34 32 31 32 33 34 35 35 34 33 32 31 30 28 26 25 23 21 20 19 18 16 15 13 12 12 13 14 13 12 11 10 9 7
3 6 5 10 12 11 9 8 9 7 3 4 3 3 2 4 4 3 5 6 5 6 2 3 6 6 6 5 7 11 16 20 22 22 23 24 26 27 29 32 33 34 34 34 34 35 35 37 39 39 38 37 35 34 33 33 35 36 37 37 36 35 33 32 31 30 28 26 24 22 20 19 17 16 15 15 14 13 14 15 15 14 12 11 10 9 8
3 6 4 5 8 9 5 4 4 5 3 2 4 3 3 0 4 6 5 5 6 3 2 4 3 1 3 5 9 13 17 21 22 23 24 23 25 28 30 33 35 35 35 36 36 37 37 39 42 42 40 38 36 35 35 36 38 39 39 38 36 34 33 33 31 29 26 24 22 21 19 17 16 15 15 16 15 15 16 16 16 14 13 12 11 9 8
2 6 4 5 7 4 2 4 3 4 3 4 6 3 3 4 1 3 4 5 4 4 6 5 2 1 2 4 9 12 19 24 24 24 24 24 26 29 30 32 34 35 35 36 37 38 39 40 40 40 39 38 37 37 37 39 40 41 40 37 35 34 34 33 30 27 24 22 21 20 18 16 15 16 17 17 15 16 17 18 17 15 14 12 11 10 9
1 3 5 6 3 2 5 5 4 3 2 7 8 4 1 4 5 5 4 4 4 3 5 8 6 3 1 3 6 8 15 23 24 23 24 24 25 28 29 32 35 36 36 37 38 39 39 39 39 38 37 37 38 40 41 41 41 41 39 37 36 36 35 31 28 25 23 22 21 19 17 16 16 17 18 17 16 17 19 18 17 15 14 12 11 10 9
2 2 5 4 2 4 5 6 5 2 3 6 6 4 4 5 5 6 6 5 3 2 4 11 11 7 6 5 4 6 12 17 19 20 22 24 25 27 29 33 36 35 34 35 36 37 37 38 38 39 39 39 41 42 42 41 40 40 39 38 38 37 35 31 27 25 24 23 21 19 17 17 18 19 18 16 17 19 20 19 17 15 14 13 11 11 10
3 4 3 2 1 4 4 4 3 2 2 2 2 2 2 3 5 5 6 5 4 4 3 13 17 13 9 6 0 6 12 15 15 16 19 23 25 26 28 30 30 28 27 28 30 34 36 37 38 40 41 42 42 43 43 41 40 39 39 39 38 37 35 32 28 25 24 23 21 19 18 18 20 20 17 15 18 20 20 19 17 16 14 13 12 11 10
2 4 3 3 3 1 3 5 4 1 2 2 4 4 2 4 6 8 7 4 4 3 3 10 15 12 7 2 4 7 11 13 14 15 16 19 22 22 23 26 25 24 23 24 28 33 35 36 38 41 42 42 41 42 43 42 40 40 40 39 39 39 37 34 30 27 26 24 21 20 20 21 22 20 17 17 19 20 20 19 17 16 14 13 12 11 9
2 5 4 2 1 2 5 6 8 7 5 1 4 4 3 5 9 12 8 3 4 4 4 7 8 7 5 4 5 6 9 12 13 13 13 15 18 19 18 20 21 19 20 25 30 34 35 36 37 39 40 41 41 42 43 42 41 41 41 42 42 40 36 31 27 25 24 22 20 21 22 23 22 18 16 19 20 20 19 18 17 16 15 13 12 11 10
2 4 3 1 2 2 4 5 9 13 9 4 6 2 3 5 10 14 9 4 5 5 6 5 5 5 6 5 4 4 9 11 12 11 10 11 14 15 16 18 18 17 21 28 32 34 35 36 36 37 39 40 41 42 43 42 42 43 44 43 40 36 30 26 24 23 21 20 21 22 22 21 19 14 14 19 21 20 18 17 16 16 15 14 12 11 10
3 3 3 1 1 3 4 6 13 16 9 5 5 3 5 6 11 12 8 5 4 6 7 4 3 4 5 5 5 10 12 12 13 12 11 11 12 12 13 14 15 16 21 27 29 31 34 35 35 37 38 40 41 42 43 44 45 45 44 39 35 31 26 23 22 20 19 21 23 23 22 21 18 14 14 18 20 19 18 17 16 16 16 15 14 12 11
3 3 4 1 2 2 3 10 15 11 2 3 3 4 3 5 9 8 7 5 4 5 5 3 2 3 3 3 10 16 15 15 15 14 13 13 12 11 10 10 11 15 19 24 27 31 33 34 35 37 38 40 41 41 42 45 45 43 41 36 31 27 24 22 20 19 21 23 25 24 23 21 18 16 16 18 18 18 17 16 16 16 17 16 15 14 13
2 3 3 3 1 1 8 11 8 3 2 3 5 4 3 5 6 7 7 6 4 4 4 4 2 2 5 9 14 17 16 16 15 15 14 13 12 13 11 9 10 13 17 22 27 31 33 34 35 37 38 39 40 40 41 42 41 38 35 31 26 23 23 22 21 21 24 25 25 24 22 19 17 17 18 17 15 15 15 15 16 17 18 18 17 15 14
2 3 1 1 3 5 11 9 3 2 3 3 4 5 6 8 9 7 6 6 6 3 3 7 7 7 9 12 15 16 16 16 15 16 16 14 13 13 11 9 11 14 18 24 29 31 33 35 36 37 38 39 40 40 41 41 38 33 30 26 22 22 24 25 23 24 26 26 25 22 20 18 17 17 16 15 13 12 13 14 17 19 20 19 18 17 15
2 3 2 1 2 5 9 10 8 7 7 6 5 5 8 11 11 7 4 4 5 3 2 6 9 10 11 13 15 16 16 16 16 16 16 15 15 14 12 12 13 16 20 25 29 31 32 33 35 36 37 38 40 40 39 38 35 29 26 25 24 25 27 26 25 26 27 25 23 21 19 18 17 15 14 14 13 13 13 14 17 20 21 19 18 17 16
1 4 4 4 5 8 11 14 15 15 15 13 9 9 10 11 10 8 6 4 3 2 1 4 7 10 12 13 15 15 15 16 17 17 17 17 16 15 15 15 16 18 21 25 27 28 29 30 31 33 33 34 37 38 37 34 31 28 27 27 28 29 29 27 26 27 27 25 22 21 20 18 15 12 12 14 14 14 14 15 17 19 19 19 19 18 17
1 3 4 5 6 9 12 15 17 19 19 17 15 13 12 10 9 9 8 6 3 0 2 4 6 9 12 14 15 16 16 17 18 19 19 19 19 18 17 17 18 21 23 24 24 25 25 25 26 27 28 30 32 32 31 29 28 28 29 29 30 30 29 27 28 28 27 25 23 22 21 18 14 13 13 14 13 11 12 15 18 19 19 19 19 18 18
2 3 3 4 10 14 15 16 16 17 17 17 17 16 13 11 10 10 9 8 6 3 3 5 7 9 12 14 16 17 18 19 19 20 21 21 20 20 19 20 21 22 24 24 23 23 24 23 22 21 21 22 22 23 25 26 26 28 29 29 30 30 29 29 29 28 27 26 25 24 22 19 16 14 14 13 9 7 8 13 16 17 18 17 16 15 16
3 3 4 3 6 11 14 15 15 15 14 14 14 14 13 12 12 11 10 9 9 8 5 3 6 8 10 13 16 17 19 20 20 20 21 21 21 21 22 23 24 24 25 25 24 22 20 18 16 14 14 14 14 15 18 23 25 27 29 29 30 30 30 29 28 27 27 26 23 23 22 20 17 16 14 11 8 6 7 9 10 10 11 12 12 11 11
2 2 2 2 3 2 5 10 13 13 12 11 11 12 13 14 14 13 12 10 10 9 7 4 4 7 9 12 15 17 20 21 20 21 21 21 21 22 23 24 24 24 24 24 23 20 15 12 12 13 13 14 13 12 16 21 24 26 29 30 29 29 29 28 27 28 28 24 22 22 21 20 19 18 15 12 9 9 10 10 9 7 6 6 7 8 8
2 3 3 7 8 4 2 7 11 11 11 11 12 12 14 14 13 13 13 12 12 10 7 4 3 6 8 11 14 17 19 19 19 20 21 21 22 22 22 23 23 22 22 22 20 17 14 13 14 14 12 13 15 15 18 22 24 26 28 29 29 29 28 27 29 29 26 22 22 23 21 19 19 19 16 14 14 14 13 13 12 10 8 6 6 7 6
3 5 9 11 11 9 8 8 9 9 11 12 12 13 13 13 13 13 12 12 12 11 9 4 2 6 8 10 12 14 15 16 18 21 21 21 22 23 23 23 23 23 24 23 20 18 17 17 16 13 11 13 15 16 19 23 24 25 26 27 28 28 27 28 30 28 24 22 23 23 22 21 20 18 16 17 19 19 17 16 15 13 11 9 8 8 6
9 11 12 12 11 11 8 7 8 9 11 12 13 14 13 12 12 11 10 10 10 10 10 6 1 4 7 10 11 12 13 14 17 21 23 22 22 23 23 24 25 25 24 22 19 17 17 16 14 12 11 14 16 17 20 23 23 24 25 26 26 26 27 29 29 26 24 23 23 23 22 22 20 18 17 19 21 20 19 18 17 15 13 11 10 9 7
14 14 13 12 10 8 4 4 6 10 11 11 12 12 11 11 12 10 9 9 8 8 9 7 2 2 4 7 10 12 12 12 15 20 23 23 23 23 24 26 25 23 20 17 14 13 14 15 14 11 12 15 17 17 20 22 22 23 25 24 23 25 26 26 25 23 22 23 22 22 22 20 18 17 18 18 18 17 17 18 18 17 15 13 12 11 8
12 10 8 6 5 5 5 5 6 8 10 10 11 11 10 10 10 8 6 7 7 7 8 7 3 2 3 4 8 12 12 12 16 22 24 24 23 24 26 27 24 21 18 14 11 13 16 16 15 13 13 16 17 18 21 21 20 23 25 23 24 25 23 21 21 22 22 22 21 21 20 18 17 17 18 17 16 14 14 15 16 17 17 15 14 12 10
9 5 1 1 3 6 7 6 6 7 9 9 8 7 7 8 9 9 8 8 8 8 7 6 3 1 3 4 6 10 13 15 18 22 23 22 22 24 26 26 23 21 18 12 11 15 18 18 16 14 14 17 18 19 22 21 20 22 24 24 25 24 20 19 21 22 22 21 20 19 19 17 17 17 17 16 15 15 14 15 16 16 17 16 15 13 11
5 2 3 5 8 7 6 5 7 8 10 9 7 7 8 9 10 10 11 11 10 9 7 6 4 2 1 3 6 10 14 16 18 21 22 23 24 25 25 22 21 20 17 14 16 19 20 19 17 14 15 18 19 19 22 22 20 20 23 25 25 21 17 19 22 22 21 21 19 18 18 17 16 17 16 15 15 15 15 16 17 17 17 16 15 13 13
6 6 7 8 8 6 4 6 7 9 10 9 9 9 10 10 9 9 9 10 10 9 8 7 5 3 1 1 4 9 13 16 18 20 22 23 25 26 24 21 20 20 19 19 21 21 20 18 16 13 15 19 21 20 22 22 20 20 22 23 20 17 16 20 21 21 20 21 19 18 17 16 15 15 15 15 17 17 16 16 17 17 16 15 14 13 14
8 7 7 7 6 4 5 6 7 8 9 9 9 8 9 9 9 8 9 10 10 9 9 7 5 3 3 1 1 5 10 15 17 19 21 23 24 25 25 24 23 22 21 22 23 23 21 18 15 13 15 20 22 22 22 22 22 21 21 19 17 17 18 20 20 20 20 20 18 17 16 15 15 15 15 17 18 18 17 18 18 17 16 14 13 12 14
9 8 7 6 4 4 5 5 5 6 8 9 9 8 9 9 10 10 10 11 10 9 8 6 5 4 3 2 0 3 7 11 14 16 18 21 23 24 24 24 24 24 23 23 23 23 21 17 13 13 16 20 23 23 23 22 21 20 19 18 18 19 20 19 19 20 19 17 16 16 15 15 16 16 17 18 18 17 18 19 19 17 16 14 12 13 15
9 9 7 5 2 2 3 4 4 5 6 9 9 9 9 9 10 11 11 10 10 9 7 5 5 4 3 2 1 2 4 8 10 13 16 20 22 23 24 24 24 23 22 21 20 21 18 13 12 14 18 22 24 24 23 22 21 19 19 18 18 19 19 18 17 18 17 15 15 14 14 15 16 16 17 18 17 17 18 19 18 17 15 13 13 15 16
5 5 5 3 2 3 3 3 3 4 6 8 9 9 9 9 9 10 10 9 9 8 7 5 4 3 2 2 1 0 3 5 8 10 13 17 19 20 21 22 22 22 21 20 21 20 15 11 11 15 19 23 25 25 24 23 22 20 19 20 19 19 19 19 17 16 15 15 14 14 15 16 16 17 17 17 16 16 17 17 16 15 14 13 15 16 17
5 6 6 5 4 5 4 4 4 5 6 7 7 8 9 9 8 8 8 8 9 8 6 4 3 3 2 1 1 1 0 3 6 8 10 13 16 18 19 20 21 21 21 21 21 18 13 10 12 16 20 23 25 25 25 24 23 22 22 22 20 19 18 17 17 15 14 13 13 13 14 15 15 16 16 15 14 15 15 15 14 14 14 15 17 17 18
6 7 7 6 6 6 6 6 5 5 6 7 7 8 9 8 8 8 9 8 8 7 6 3 1 2 2 1 1 2 1 1 3 7 10 12 14 17 18 20 21 22 22 21 20 16 12 12 14 17 19 22 23 23 23 22 23 24 23 21 19 19 18 18 16 14 12 10 10 10 11 12 13 14 13 12 12 13 13 13 13 13 14 16 17 18 19
6 6 7 8 8 8 8 8 6 6 7 8 8 8 9 8 8 9 9 7 6 6 6 4 1 1 1 1 1 1 1 2 3 6 10 12 14 16 18 19 20 21 21 21 19 15 13 14 16 18 21 22 22 20 20 20 21 21 19 18 19 20 20 18 16 13 11 9 8 8 10 12 12 12 12 11 10 10 11 12 13 14 15 16 17 17 19
4 5 7 9 8 7 6 6 5 5 7 7 7 8 9 8 7 7 7 6 5 6 7 5 2 0 1 1 0 1 2 2 3 5 8 12 14 15 16 16 17 19 19 18 17 15 15 16 18 21 22 21 19 18 18 19 19 18 17 18 19 19 17 16 16 14 12 10 9 9 11 12 11 11 11 10 8 6 8 11 12 13 14 15 15 16 18
0 2 5 7 7 6 5 4 4 4 6 7 7 8 8 7 6 5 5 5 6 7 7 6 4 2 1 1 1 1 1 2 3 4 7 10 12 14 14 15 16 16 17 16 15 15 16 17 19 22 22 20 18 17 17 17 18 18 18 17 17 16 16 16 16 14 12 11 10 11 11 10 9 8 8 7 6 6 8 9 10 10 11 11 12 13 14
3 3 4 4 5 5 4 4 4 4 5 6 6 7 7 7 6 5 4 6 8 8 7 5 2 1 1 1 2 2 1 3 5 6 8 10 13 14 15 15 15 15 14 14 14 15 16 17 20 21 21 18 16 16 16 16 17 18 17 16 15 15 15 15 15 13 12 11 10 10 9 8 7 7 7 6 6 7 9 9 8 8 8 9 9 9 9
5 5 4 4 4 3 2 4 5 4 3 5 6 7 7 6 6 5 5 7 9 8 5 3 2 2 1 2 2 2 2 4 7 10 11 12 14 15 16 16 16 14 13 13 13 14 16 17 18 19 18 16 16 16 15 15 15 16 15 15 15 15 15 15 14 12 11 10 10 9 8 7 7 7 7 6 6 8 9 8 6 6 7 8 8 7 6
7 4 2 4 3 1 2 4 5 4 3 3 5 7 7 6 5 4 5 6 8 8 6 5 5 4 3 2 2 1 2 5 9 13 14 14 14 16 18 18 15 13 12 14 15 16 17 17 18 18 18 17 17 17 16 15 15 14 14 13 13 14 14 13 12 10 10 9 9 8 7 7 7 6 5 6 7 8 7 7 7 7 7 7 6 6 4
7 2 2 1 1 2 2 2 3 3 2 3 4 6 7 6 5 4 4 5 7 6 5 5 5 4 3 2 2 0 3 7 10 14 16 17 16 16 18 18 17 15 16 18 19 20 20 19 18 17 17 16 15 15 14 14 13 12 11 11 12 13 12 11 10 9 8 7 6 6 7 7 7 6 6 7 7 7 7 7 7 7 7 7 6 5 4
6 3 1 0 2 2 2 1 2 2 2 3 4 5 6 6 5 4 4 5 5 4 4 5 5 4 3 2 1 2 5 8 11 14 17 19 19 18 18 19 19 18 19 19 19 20 20 19 19 19 18 16 15 14 14 13 12 11 11 11 12 12 11 10 9 8 7 7 6 6 7 7 7 7 7 7 7 6 6 6 6 5 4 5 6 7 5
6 4 1 1 1 2 2 2 2 2 1 1 2 4 5 6 5 3 2 4 5 3 4 5 4 3 2 1 2 4 7 10 13 15 17 19 20 20 19 18 19 19 20 21 22 22 22 21 21 20 19 16 15 14 13 12 13 12 12 12 12 11 10 9 8 8 8 7 7 6 7 8 9 9 9 8 7 6 5 5 5 4 3 4 5 7 6
5 3 2 1 1 1 2 1 1 2 2 1 2 4 6 6 4 2 2 3 3 3 5 4 3 2 2 2 4 7 10 12 14 14 14 16 18 19 19 19 20 22 23 23 23 22 22 22 22 21 19 16 14 13 13 13 14 13 12 11 11 10 10 9 8 7 6 6 6 7 8 9 10 10 10 8 7 5 4 4 4 4 3 3 4 5 7
3 4 4 3 2 1 1 0 2 3 3 2 3 5 6 6 5 2 4 4 3 4 5 5 3 3 4 3 4 7 10 13 15 14 11 12 17 21 22 23 24 24 23 21 20 20 20 21 21 21 19 17 14 12 12 13 13 12 11 10 10 9 9 8 8 7 7 8 9 9 9 8 9 9 9 8 7 6 5 5 5 4 3 3 4 5 7
5 6 5 3 2 2 2 1 2 3 3 3 4 5 5 5 4 3 5 5 3 4 6 6 5 5 5 5 5 7 10 12 15 17 16 16 20 24 25 24 25 24 21 19 19 19 20 21 21 20 19 17 15 12 11 11 11 10 10 10 9 9 9 8 8 8 9 10 11 10 9 8 9 9 9 8 7 6 6 5 5 4 4 5 5 6 7
4 4 3 3 3 3 2 1 2 3 3 4 5 6 5 4 2 2 5 6 4 4 6 8 8 7 6 5 5 8 9 9 11 17 21 22 23 24 22 21 23 23 20 17 17 18 20 20 20 18 17 16 14 11 9 9 9 9 9 9 9 9 9 9 9 9 9 9 9 8 7 6 7 8 8 7 6 5 6 6 7 7 6 6 7 7 8
5 3 3 4 4 2 1 1 1 2 4 5 6 5 4 3 2 1 4 6 5 5 6 8 9 9 8 6 5 7 9 9 10 16 22 23 22 20 19 19 21 21 19 16 16 17 17 16 16 15 14 13 12 10 9 8 9 10 9 10 10 10 10 9 9 9 9 9 8 7 7 6 7 7 6 5 4 4 4 5 6 7 7 8 8 8 9
5 4 4 5 5 3 2 3 1 1 3 4 5 5 4 3 2 2 2 5 6 6 6 8 10 11 11 9 7 7 8 8 10 15 20 21 18 17 18 20 22 21 19 17 17 17 16 15 14 13 12 11 10 9 8 9 10 11 11 11 11 10 9 9 9 9 9 9 8 7 6 7 6 6 6 5 4 4 3 4 5 5 6 7 8 9 11
5 5 4 5 6 4 3 3 2 0 2 2 3 4 6 6 4 3 3 5 6 5 5 6 9 11 11 9 8 8 9 8 8 12 16 16 15 16 21 23 22 20 18 17 17 16 14 12 11 11 11 11 11 9 9 11 12 12 11 11 10 9 8 8 8 8 8 8 7 5 4 4 4 3 3 2 2 2 2 3 4 4 5 6 7 8 9
Wind_Direction
256 289 191 148 133 139 141 134 143 153 155 147 140 175 195 154 152 226 228 194 205 240 260 267 272 302 264 197 154 156 154 153 157 159 158 159 160 162 166 169 170 171 175 182 184 185 189 192 195 196 197 198 199 200 202 204 202 197 193 194 196 197 197 197 197 199 199 201 204 208 213 219 227 235 242 253 262 258 242 225 216 201 187 185 187 186 182
350 342 359 108 110 97 64 67 132 150 155 164 161 175 178 145 168 215 181 179 224 244 252 273 336 109 172 140 137 145 145 146 149 149 149 151 155 161 167 172 174 177 180 182 184 187 189 192 196 196 195 194 196 199 202 202 198 195 195 195 196 196 195 195 196 198 200 202 205 210 216 223 232 241 248 256 257 241 217 207 198 187 182 181 178 174 172
0 344 15 77 91 89 70 43 20 55 116 135 123 119 124 110 115 236 163 173 237 265 245 261 63 104 129 139 145 145 145 146 144 141 144 150 154 160 167 171 175 178 180 182 187 191 192 194 195 195 195 194 194 197 199 198 196 195 196 196 195 194 193 194 196 198 200 203 207 213 219 227 237 245 249 247 237 217 203 195 185 179 179 176 172 169 163
331 333 41 82 88 81 68 41 8 1 50 122 106 88 123 151 161 137 132 168 232 263 239 62 54 95 133 160 161 148 148 150 147 142 143 148 155 162 167 172 176 180 183 188 192 193 192 193 194 195 195 194 194 196 196 195 195 195 196 196 193 192 193 194 196 199 201 204 209 215 223 232 239 241 237 232 222 206 195 186 178 176 175 172 168 163 155
303 320 25 82 80 63 30 349 333 319 310 126 104 48 15 44 149 138 148 204 233 230 135 79 47 130 189 193 177 161 155 155 154 152 152 159 168 170 172 175 179 185 190 193 194 193 194 196 197 198 198 197 199 200 196 194 194 193 194 194 192 192 194 196 197 199 203 207 212 220 228 233 235 231 226 225 217 202 188 179 175 175 172 168 163 156 151
268 306 350 48 59 62 263 263 254 257 265 96 97 79 345 337 308 187 215 240 228 173 140 132 144 259 287 222 196 179 168 164 162 163 168 175 178 176 178 183 188 193 195 194 195 196 197 198 198 198 198 199 200 198 195 193 192 192 193 193 193 193 194 197 200 203 208 213 218 225 230 231 229 223 219 218 209 192 180 174 173 173 168 164 160 155 153
184 324 31 63 67 225 244 280 294 247 173 105 102 111 45 10 355 334 309 271 235 183 130 116 108 73 41 193 201 193 180 173 169 170 175 180 180 181 185 192 197 199 198 195 195 196 197 198 197 196 196 196 193 191 192 192 191 193 194 194 194 194 195 199 203 206 212 218 222 226 228 228 223 215 214 210 194 179 174 172 172 170 165 163 162 159 156
135 46 58 97 206 263 293 315 328 11 63 73 74 50 20 24 15 348 316 292 294 341 104 111 112 116 117 126 171 189 182 180 178 179 181 184 189 193 195 199 201 200 197 193 193 197 199 200 200 198 197 195 190 187 188 192 193 195 196 194 194 195 198 202 205 210 215 218 222 225 226 224 214 206 207 199 180 173 172 170 170 168 165 165 166 162 158
119 104 75 94 327 333 334 324 335 35 26 12 89 75 351 5 32 9 323 323 16 12 99 119 123 125 108 77 328 193 183 185 188 190 190 190 195 200 200 201 200 195 192 193 197 203 206 204 202 199 197 195 191 188 188 192 196 197 196 195 197 200 203 203 205 210 214 219 223 223 221 215 204 198 197 186 174 174 174 171 170 171 170 169 166 163 159
92 97 77 52 32 323 255 276 290 281 271 244 151 114 339 331 16 15 345 349 61 53 84 121 129 127 104 61 251 200 186 189 191 196 201 200 203 205 201 200 198 193 194 202 209 212 210 206 201 196 194 193 191 190 190 193 196 199 199 200 202 203 202 200 202 207 214 222 224 218 212 204 196 192 188 179 176 176 175 173 172 173 174 172 166 163 163
57 94 99 104 126 216 249 275 289 300 309 268 119 83 344 317 358 8 0 13 76 90 120 132 130 124 134 215 231 188 179 187 189 194 202 205 209 210 204 206 207 202 199 205 211 210 207 204 199 195 195 194 193 193 193 194 198 202 202 201 201 199 197 197 201 208 215 221 216 207 203 195 188 187 184 177 175 173 173 176 176 175 177 177 171 167 166
63 93 93 133 173 250 273 273 292 311 329 63 98 86 268 296 344 359 1 12 60 103 138 128 101 127 174 223 246 181 177 182 184 190 197 202 208 210 209 212 215 211 205 205 207 208 207 205 200 197 197 196 196 197 197 198 201 202 199 196 195 194 194 197 204 209 212 213 205 199 197 191 185 186 182 175 173 172 173 178 180 180 180 181 179 175 171
48 81 94 74 259 260 269 284 304 316 336 71 104 196 234 301 336 354 7 12 54 116 152 156 138 183 219 255 230 199 192 187 185 190 195 198 204 209 212 212 210 208 207 206 207 209 209 206 201 198 198 198 199 200 199 199 201 201 197 194 193 193 195 199 204 206 204 201 196 193 192 190 186 186 180 174 173 173 174 180 185 187 186 184 184 181 177
40 90 112 60 285 247 293 302 307 320 12 139 213 235 238 317 333 360 29 39 71 112 149 180 207 211 214 201 193 193 195 195 192 193 198 200 200 198 196 197 200 204 206 207 207 207 205 203 199 196 196 196 197 198 195 193 196 196 193 192 192 193 195 198 200 196 190 189 189 186 185 184 183 180 176 174 173 173 175 182 188 191 191 187 187 188 184
79 67 66 59 172 296 340 329 318 353 95 206 261 293 346 11 5 15 34 53 79 108 148 166 178 151 143 161 180 186 191 196 196 196 202 204 198 187 177 178 194 204 205 206 207 206 205 202 199 199 200 199 197 196 193 191 192 191 189 189 190 190 191 189 186 182 180 181 183 182 180 182 183 178 172 172 174 176 180 186 191 194 194 191 191 193 188
101 87 60 132 207 295 340 356 22 26 355 323 318 339 6 29 30 20 22 42 54 65 157 163 158 159 162 172 182 183 185 192 196 197 199 198 193 186 179 179 193 204 207 205 204 204 204 203 201 203 206 204 200 197 195 194 193 190 187 187 187 188 187 181 174 174 176 178 180 180 179 180 181 177 172 174 179 182 185 191 195 195 195 194 195 196 191
114 133 186 246 318 338 5 32 50 48 51 62 61 41 32 31 32 32 32 52 64 63 158 171 165 170 178 182 185 187 187 192 197 199 197 195 193 189 185 185 192 203 210 208 203 199 199 200 200 201 203 201 197 194 193 192 190 187 185 183 181 182 182 177 171 172 175 176 179 179 177 177 178 178 179 180 180 180 182 189 193 192 193 196 198 197 194
90 66 53 34 23 27 45 58 62 65 71 73 69 63 53 39 35 42 45 48 75 99 170 189 182 186 191 189 190 194 195 196 200 199 196 195 197 196 192 188 188 196 203 204 199 193 191 193 195 196 197 197 194 191 189 188 185 183 181 179 178 177 177 175 173 174 175 176 177 178 177 178 180 184 186 182 178 178 182 187 190 192 194 196 198 198 197
107 61 41 38 46 46 52 63 67 68 70 68 64 62 56 45 39 41 39 34 31 28 232 241 230 212 203 197 196 199 201 203 203 200 196 196 200 201 198 191 189 193 196 194 190 185 183 184 187 187 187 189 189 188 185 182 180 179 177 176 175 174 174 175 175 176 177 176 177 179 179 178 180 187 190 186 182 184 190 191 190 194 198 199 198 198 198
78 139 142 95 74 62 57 62 64 63 66 68 67 66 62 54 47 38 32 31 24 354 279 259 242 221 211 208 206 203 204 206 204 199 197 198 201 201 197 191 190 190 190 189 187 183 180 179 178 179 181 183 184 184 181 178 177 177 176 174 174 174 176 176 175 178 180 178 177 179 178 177 182 190 192 190 192 203 206 196 191 194 198 198 196 198 199
69 121 156 128 76 53 49 58 60 57 57 60 63 65 60 52 45 34 25 22 17 8 351 293 237 218 216 217 212 207 207 208 203 197 196 199 202 201 194 189 188 189 190 189 182 172 167 165 162 163 171 175 175 179 183 182 178 176 176 177 177 177 177 176 177 179 179 178 179 181 180 181 187 191 190 192 203 211 199 189 189 195 194 188 187 191 197
123 210 222 144 119 50 26 49 57 53 45 39 43 48 44 39 35 29 20 17 17 14 7 336 260 236 230 221 214 212 212 209 203 197 197 199 201 199 193 188 189 192 193 188 177 162 154 158 163 166 170 171 173 182 190 188 184 180 180 180 179 178 178 179 181 179 177 177 182 185 185 186 189 189 189 189 190 186 174 167 169 176 175 171 175 180 187
192 225 159 119 113 115 71 60 61 52 36 26 27 30 28 24 21 18 14 13 17 16 10 352 271 252 241 222 214 215 214 209 202 197 198 200 198 196 194 191 189 189 187 183 179 174 174 179 182 183 182 179 178 182 186 187 187 186 184 182 180 179 180 183 183 180 178 182 186 187 188 190 191 192 190 180 169 164 159 154 155 158 157 158 162 164 173
99 105 121 117 108 104 94 72 57 42 28 19 15 15 13 8 6 4 2 4 11 12 5 357 252 244 241 225 218 220 218 214 206 199 198 200 198 196 198 194 187 184 183 183 186 188 186 184 185 187 190 187 183 183 186 187 188 189 188 185 182 179 181 184 184 183 183 186 188 189 190 190 192 196 194 177 162 157 157 155 155 158 160 161 162 162 166
113 114 117 112 108 108 97 65 42 29 19 10 3 0 0 1 360 356 350 352 2 7 2 359 311 232 237 235 235 232 227 225 216 204 200 199 196 195 197 194 188 186 185 184 186 188 185 179 176 174 177 180 182 184 185 186 188 189 189 188 186 184 184 185 183 183 185 187 190 192 193 191 193 198 194 180 168 162 163 163 164 167 170 171 174 178 182
123 123 120 113 110 107 83 37 29 22 11 2 356 351 349 356 360 357 354 353 356 1 3 3 354 254 245 243 243 240 238 235 221 209 204 201 197 196 197 196 194 192 187 179 179 186 184 176 169 165 168 175 180 182 182 185 191 191 189 189 189 187 185 184 184 186 190 192 193 195 195 195 198 197 192 185 178 173 174 175 176 179 182 185 189 193 198
129 128 122 113 104 86 61 45 32 16 359 349 346 343 343 351 355 355 0 5 5 7 9 6 356 313 286 263 241 234 234 228 214 208 206 203 200 200 201 199 197 193 185 175 174 184 185 179 174 172 172 176 181 183 183 187 194 193 188 189 189 188 190 195 197 197 195 194 195 197 199 202 202 197 192 191 189 190 192 191 188 188 190 194 198 199 204
144 144 114 86 108 99 82 60 34 12 1 355 350 344 340 343 346 349 357 4 9 13 13 8 8 339 297 282 244 225 222 219 213 208 205 204 205 207 204 199 194 190 184 178 180 187 187 183 180 180 179 178 182 185 185 188 195 196 192 191 192 192 196 200 199 196 193 194 199 205 207 207 205 201 200 201 202 203 205 204 201 197 196 198 203 205 208
139 110 73 90 102 103 89 59 35 23 16 7 352 342 337 332 336 348 358 2 5 11 14 17 22 19 289 262 241 224 216 214 214 212 208 206 208 210 207 199 191 187 186 184 185 187 187 186 186 189 186 183 183 184 185 188 195 199 196 193 193 195 197 195 193 194 195 197 204 211 211 211 211 210 212 214 212 209 209 209 208 206 203 204 209 213 211
111 101 94 97 99 93 68 47 36 26 17 6 353 348 346 338 334 342 355 1 4 10 19 27 27 13 353 259 232 224 217 217 218 216 213 211 210 211 210 202 191 186 185 187 188 188 189 192 196 197 193 189 186 185 185 188 194 197 196 193 194 200 201 195 194 196 199 202 208 211 211 212 215 216 218 218 214 213 216 217 214 211 210 213 222 225 216
123 110 104 106 102 77 50 44 33 21 15 8 360 1 4 357 348 345 349 357 5 10 17 26 27 5 357 12 209 215 219 223 224 220 217 217 216 216 217 213 206 199 194 193 193 192 193 196 201 202 198 194 190 187 188 191 193 194 195 198 200 200 198 196 197 201 204 208 210 210 208 208 210 212 215 215 213 215 219 220 217 214 216 223 231 227 213
137 126 124 123 101 57 46 40 23 13 13 5 358 3 8 0 351 346 346 354 4 9 13 24 28 14 3 5 210 208 217 224 226 224 221 219 218 219 220 219 215 207 198 194 196 195 194 196 202 202 197 193 189 187 189 192 194 196 200 202 199 194 194 198 204 206 207 210 212 211 208 207 209 210 212 212 215 220 222 220 218 218 223 230 231 218 206
150 140 141 142 115 63 45 26 5 2 5 357 351 355 358 349 342 342 345 352 1 6 14 30 38 26 9 0 336 228 219 222 225 225 221 218 218 219 219 219 217 210 201 199 203 200 196 199 203 197 189 186 184 185 188 191 195 196 194 191 191 193 197 204 207 206 206 209 212 214 214 214 216 216 214 214 220 225 224 221 220 223 225 225 218 208 201
148 131 132 131 100 64 44 25 11 0 356 350 347 351 354 346 336 336 339 344 352 1 11 31 52 57 18 352 0 215 227 228 224 221 218 218 219 220 220 222 222 215 207 207 206 199 193 197 200 191 185 185 185 186 188 191 193 191 185 183 189 198 203 204 203 202 201 205 211 218 222 222 220 218 217 219 224 225 221 219 220 221 218 211 205 201 196
91 94 108 110 80 60 54 40 23 6 355 347 347 355 357 349 339 341 344 342 344 350 357 12 50 75 55 13 47 86 202 231 226 223 221 221 222 222 220 219 219 215 210 206 202 194 188 192 193 189 188 189 188 188 190 192 192 191 188 187 191 198 202 202 201 200 202 208 216 221 221 217 214 214 216 219 219 216 214 215 214 211 208 204 201 197 192
76 84 96 90 68 59 54 39 23 10 357 346 344 352 356 348 343 349 352 345 341 345 346 348 53 97 78 66 77 69 51 244 234 231 228 225 225 223 218 214 211 210 206 200 196 191 189 190 192 192 191 189 187 188 191 191 191 193 192 189 188 193 199 202 202 199 197 199 206 210 207 204 203 205 206 207 207 207 208 209 208 205 204 202 200 195 191
71 77 82 70 57 55 49 34 18 5 358 352 348 350 352 349 347 352 354 350 348 347 343 338 351 127 119 117 128 125 145 182 217 228 227 225 223 220 217 212 209 207 203 197 191 187 187 190 194 195 194 191 190 191 192 191 193 195 192 184 184 191 197 199 195 184 173 170 176 185 187 184 183 185 186 186 189 198 204 206 205 202 200 198 195 193 192
64 76 76 59 44 39 34 23 8 353 356 359 355 351 351 350 350 355 358 359 357 349 342 336 322 222 123 102 162 192 178 180 194 212 221 223 219 214 212 210 207 206 203 198 190 186 189 196 197 195 194 194 192 189 188 190 192 191 185 181 185 191 190 185 178 168 159 156 158 162 164 164 164 168 170 167 167 181 194 196 195 194 192 191 191 192 194
148 98 81 54 29 14 8 11 7 358 358 359 356 351 352 355 0 8 9 1 350 338 330 323 304 267 271 13 350 274 224 205 202 208 217 219 214 208 203 200 199 199 199 196 190 188 191 193 191 188 189 188 182 179 181 185 185 183 181 181 183 180 174 170 168 163 159 157 155 153 155 156 158 163 165 160 159 170 172 169 168 171 174 175 179 186 192
181 142 100 50 16 6 8 7 6 7 8 10 8 1 353 353 2 14 12 358 347 336 327 323 308 224 217 3 0 342 282 224 210 210 214 211 207 202 196 189 187 190 193 192 188 184 182 179 177 177 180 181 177 175 177 179 179 180 180 176 172 167 165 166 167 167 165 166 164 161 161 162 166 171 175 173 174 176 170 161 157 162 167 169 171 175 184
173 139 89 16 352 1 8 351 351 4 23 29 26 19 6 359 4 9 5 357 353 351 357 28 69 96 91 37 10 341 278 220 202 200 203 203 200 196 187 178 175 180 186 186 180 174 171 173 173 170 167 165 161 158 155 156 161 167 168 166 164 164 166 167 169 170 171 173 174 173 174 177 180 184 187 185 182 181 179 178 179 180 179 181 184 186 195
158 129 28 341 339 8 348 335 342 356 7 15 20 16 11 9 7 2 0 2 3 7 26 58 71 73 70 49 9 318 243 208 193 188 189 193 194 188 177 168 166 172 174 169 161 154 151 155 159 158 153 150 149 147 145 143 145 151 156 158 159 162 165 166 166 165 166 169 172 174 177 183 190 198 200 193 189 190 194 202 208 206 204 205 205 201 205
162 163 310 330 48 31 337 337 5 16 13 23 23 13 8 8 4 353 353 1 4 11 38 68 69 62 55 36 16 234 200 196 188 180 175 174 176 176 167 157 151 152 153 152 150 146 141 138 139 141 141 139 138 138 137 134 135 140 148 155 160 164 166 163 158 155 157 162 170 179 190 199 205 206 203 199 199 202 209 218 222 221 224 226 217 198 188
167 188 254 148 83 32 342 354 37 42 57 57 40 22 12 9 3 352 351 359 3 18 62 77 67 55 47 42 56 162 176 179 179 175 168 159 153 152 150 145 141 141 144 145 143 140 136 132 129 128 127 124 120 118 118 121 130 140 147 154 159 161 157 150 147 152 158 164 171 183 195 202 202 200 201 205 205 199 197 204 210 214 225 228 212 196 187
166 170 197 190 83 25 3 354 11 32 69 71 34 25 23 17 8 0 11 15 17 44 85 88 81 79 86 107 154 166 164 164 169 173 169 157 145 138 138 142 143 141 140 137 133 128 127 127 124 119 115 114 114 115 116 124 134 138 138 142 147 148 142 140 143 151 158 165 174 186 194 199 204 208 211 209 204 197 195 201 205 204 213 224 216 208 207
154 157 187 220 255 358 0 346 357 9 12 355 351 13 23 19 10 26 74 50 37 70 98 100 101 123 135 142 152 158 161 162 162 164 167 163 152 142 140 144 144 139 134 132 129 126 125 125 121 115 110 110 115 123 130 136 138 138 139 143 145 141 136 135 138 145 156 165 171 178 185 192 200 205 203 197 193 193 195 192 189 191 205 227 228 221 216
175 187 198 213 241 254 218 154 19 9 7 352 347 2 15 15 10 62 112 102 75 89 111 123 142 156 158 163 164 162 162 158 150 148 157 164 154 145 142 142 139 135 133 133 131 130 131 132 129 124 120 118 121 130 141 147 149 151 154 154 149 143 139 134 133 138 143 140 138 144 153 160 167 176 180 179 177 179 178 174 175 184 200 215 219 215 213
198 189 184 198 227 221 186 100 32 22 29 21 3 1 8 12 17 84 119 119 109 119 139 157 170 165 159 164 166 166 168 162 150 146 151 153 146 142 142 142 138 135 135 135 134 135 139 142 141 137 132 128 127 133 144 153 159 163 162 157 150 145 141 136 131 134 137 135 132 133 137 143 153 167 177 182 188 195 201 205 211 220 224 225 223 222 227
198 185 182 203 208 194 167 92 27 29 42 38 22 9 5 4 14 99 127 132 134 142 156 171 178 172 165 165 159 161 173 178 161 151 151 150 145 144 147 147 141 138 136 134 132 134 140 145 147 145 141 137 135 136 142 153 159 163 163 160 153 147 144 140 140 146 153 155 154 151 149 152 163 174 180 185 195 212 224 230 235 241 243 239 233 231 237
205 200 209 211 202 190 215 255 319 34 41 35 24 19 21 21 10 72 131 141 148 152 159 172 182 184 180 179 169 161 169 177 172 162 160 159 158 157 158 153 146 141 137 132 130 131 136 144 151 152 149 147 146 143 145 153 158 161 161 159 155 155 157 155 151 153 161 168 171 169 164 165 174 184 191 197 208 217 225 233 240 246 251 254 253 252 253
208 211 221 218 206 199 221 236 233 42 35 24 19 23 37 48 37 38 111 138 150 157 162 174 187 192 192 192 188 175 173 178 176 168 166 169 174 174 165 154 146 141 137 134 132 130 130 136 145 152 158 162 162 155 152 157 161 162 160 155 150 151 158 160 158 157 163 168 170 167 160 159 168 183 197 208 215 216 219 230 239 245 254 261 263 264 266
207 204 198 188 182 184 204 217 206 121 24 20 22 26 37 49 55 63 106 133 144 154 167 178 185 190 196 200 195 182 177 179 176 172 175 183 188 177 162 152 146 142 139 137 136 132 129 131 139 147 157 167 170 163 158 160 161 159 156 153 148 145 148 154 158 162 167 171 176 177 167 161 168 181 194 217 249 266 268 265 259 258 264 269 271 274 276
Height
1391 1389 1385 1382 1382 1385 1387 1389 1392 1394 1396 1396 1395 1398 1402 1404 1406 1407 1409 1411 1405 1396 1392 1394 1398 1400 1398 1397 1397 1398 1399 1401 1404 1408 1411 1414 1419 1422 1426 1430 1432 1433 1434 1437 1439 1441 1443 1444 1446 1448 1452 1455 1458 1461 1465 1467 1470 1473 1476 1479 1483 1486 1490 1492 1495 1497 1499 1501 1503 1505 1506 1508 1508 1509 1510 1511 1512 1513 1513 1514 1515 1516 1517 1518 1519 1519 1520
1392 1391 1387 1382 1382 1388 1393 1395 1395 1393 1394 1396 1394 1396 1403 1404 1402 1403 1406 1407 1401 1395 1394 1396 1399 1399 1398 1399 1400 1399 1401 1403 1405 1408 1412 1415 1420 1423 1426 1428 1430 1432 1433 1436 1439 1442 1444 1446 1447 1450 1453 1455 1457 1460 1463 1466 1469 1472 1475 1479 1482 1485 1489 1491 1494 1496 1499 1501 1503 1504 1505 1506 1507 1508 1509 1510 1511 1512 1513 1513 1515 1516 1517 1518 1519 1519 1520
1393 1393 1390 1386 1386 1393 1400 1403 1401 1397 1395 1396 1396 1400 1406 1406 1404 1406 1408 1406 1400 1397 1398 1399 1398 1399 1399 1401 1401 1401 1402 1403 1405 1409 1412 1415 1419 1423 1425 1428 1431 1433 1435 1438 1440 1442 1445 1448 1451 1453 1455 1456 1457 1459 1462 1466 1469 1471 1475 1478 1481 1484 1488 1491 1493 1496 1498 1500 1502 1503 1504 1506 1507 1508 1508 1509 1510 1511 1512 1513 1514 1516 1517 1518 1519 1519 1520
1396 1395 1393 1391 1388 1392 1399 1403 1406 1405 1399 1398 1400 1403 1407 1405 1404 1409 1412 1406 1399 1397 1399 1399 1399 1400 1401 1402 1402 1402 1403 1404 1406 1409 1413 1417 1420 1423 1425 1427 1429 1431 1433 1436 1438 1440 1443 1447 1449 1451 1453 1456 1458 1459 1461 1464 1467 1471 1474 1477 1480 1484 1487 1490 1493 1495 1497 1499 1501 1502 1503 1505 1506 1507 1507 1508 1509 1510 1511 1513 1514 1515 1517 1518 1518 1519 1520
1399 1398 1398 1393 1388 1395 1405 1408 1410 1410 1404 1401 1401 1404 1408 1409 1407 1407 1406 1401 1398 1398 1398 1398 1400 1402 1403 1403 1403 1402 1402 1404 1407 1410 1413 1417 1420 1422 1424 1426 1428 1429 1431 1433 1435 1437 1440 1442 1444 1447 1449 1453 1456 1458 1460 1463 1466 1470 1473 1476 1480 1483 1486 1489 1491 1494 1496 1498 1499 1501 1502 1504 1505 1506 1507 1508 1509 1510 1511 1512 1513 1515 1516 1517 1518 1519 1520
1399 1400 1397 1394 1399 1411 1415 1410 1409 1410 1407 1403 1403 1407 1411 1412 1410 1405 1402 1400 1400 1399 1398 1399 1401 1404 1404 1404 1404 1404 1403 1403 1406 1409 1411 1414 1417 1420 1423 1426 1427 1428 1429 1431 1433 1436 1438 1440 1443 1446 1449 1451 1454 1457 1460 1462 1465 1469 1472 1476 1479 1482 1485 1488 1490 1493 1495 1496 1498 1499 1501 1503 1504 1505 1506 1507 1508 1509 1510 1511 1513 1514 1516 1517 1518 1519 1520
1401 1400 1396 1402 1415 1420 1413 1409 1410 1409 1407 1406 1407 1409 1411 1411 1411 1407 1403 1401 1401 1399 1398 1400 1403 1405 1405 1405 1406 1407 1406 1405 1406 1408 1411 1414 1417 1419 1422 1424 1425 1426 1427 1430 1433 1436 1439 1441 1444 1447 1449 1451 1453 1456 1459 1462 1465 1468 1471 1474 1477 1480 1483 1486 1488 1491 1493 1495 1496 1498 1499 1501 1502 1503 1504 1505 1507 1509 1510 1511 1513 1514 1516 1517 1518 1520 1521
1404 1401 1402 1412 1421 1416 1410 1410 1411 1408 1408 1409 1408 1407 1409 1411 1412 1409 1404 1402 1402 1402 1401 1401 1403 1405 1406 1406 1407 1407 1409 1409 1409 1410 1412 1415 1418 1419 1420 1422 1423 1425 1428 1431 1435 1438 1440 1442 1443 1445 1447 1449 1451 1455 1459 1463 1466 1468 1470 1473 1476 1478 1480 1483 1486 1488 1491 1492 1494 1496 1497 1499 1500 1501 1503 1504 1506 1508 1510 1512 1513 1515 1516 1518 1519 1520 1521
1408 1407 1410 1416 1419 1417 1415 1413 1412 1412 1413 1413 1412 1410 1409 1411 1412 1410 1407 1403 1403 1404 1403 1402 1404 1406 1408 1409 1409 1408 1409 1410 1411 1412 1414 1416 1418 1419 1421 1423 1425 1427 1432 1436 1438 1439 1439 1440 1441 1443 1444 1447 1450 1454 1458 1461 1464 1467 1469 1471 1474 1476 1478 1481 1483 1486 1489 1490 1492 1494 1495 1497 1498 1500 1502 1504 1506 1508 1510 1512 1513 1515 1516 1518 1519 1520 1521
1411 1408 1412 1418 1420 1421 1419 1414 1414 1415 1413 1413 1415 1413 1410 1410 1411 1410 1408 1405 1403 1405 1406 1404 1405 1407 1411 1413 1411 1410 1410 1411 1412 1414 1415 1416 1418 1420 1422 1424 1426 1429 1435 1438 1438 1438 1439 1440 1441 1443 1445 1447 1450 1454 1456 1459 1462 1465 1467 1469 1471 1473 1475 1478 1481 1484 1487 1489 1490 1492 1493 1495 1497 1499 1501 1504 1507 1509 1511 1512 1513 1515 1517 1518 1520 1521 1522
1409 1406 1410 1419 1421 1420 1418 1414 1413 1413 1412 1412 1414 1413 1412 1412 1412 1410 1408 1407 1405 1406 1407 1406 1406 1409 1413 1413 1411 1411 1413 1413 1413 1415 1416 1417 1419 1420 1423 1424 1427 1431 1435 1436 1436 1437 1439 1441 1442 1444 1446 1448 1450 1452 1454 1457 1460 1462 1464 1466 1468 1470 1473 1477 1481 1484 1486 1488 1489 1490 1492 1495 1498 1500 1502 1504 1507 1510 1512 1513 1514 1515 1517 1519 1520 1521 1523
1410 1409 1414 1421 1422 1419 1417 1414 1411 1411 1410 1411 1413 1416 1415 1413 1412 1411 1409 1408 1407 1407 1408 1408 1408 1410 1413 1413 1412 1414 1415 1414 1415 1416 1416 1418 1419 1420 1422 1424 1426 1431 1433 1433 1433 1436 1437 1439 1441 1443 1445 1447 1448 1450 1452 1454 1456 1458 1461 1464 1467 1470 1474 1478 1481 1483 1486 1487 1488 1489 1492 1495 1498 1501 1503 1505 1507 1509 1511 1513 1514 1516 1518 1519 1521 1522 1523
1410 1411 1415 1422 1423 1419 1416 1414 1411 1410 1410 1411 1416 1418 1416 1414 1414 1412 1410 1409 1409 1408 1409 1409 1410 1411 1412 1412 1413 1414 1415 1415 1416 1416 1417 1418 1419 1420 1422 1424 1426 1428 1430 1431 1433 1434 1436 1438 1440 1442 1444 1446 1448 1449 1451 1452 1453 1455 1460 1465 1469 1472 1475 1478 1480 1483 1485 1486 1487 1489 1491 1494 1497 1501 1503 1505 1507 1508 1511 1513 1514 1516 1518 1520 1521 1522 1523
1415 1416 1417 1421 1422 1420 1417 1415 1412 1410 1411 1414 1417 1417 1416 1415 1414 1411 1410 1410 1409 1409 1410 1410 1411 1411 1411 1411 1413 1414 1415 1416 1416 1416 1417 1418 1419 1420 1421 1423 1424 1426 1428 1430 1432 1433 1435 1437 1439 1441 1443 1446 1447 1449 1451 1452 1453 1456 1461 1466 1469 1472 1475 1477 1479 1482 1483 1485 1487 1489 1491 1494 1497 1500 1503 1505 1507 1508 1510 1512 1514 1516 1518 1519 1521 1522 1523
1419 1417 1417 1420 1422 1421 1419 1415 1413 1413 1414 1416 1416 1415 1415 1415 1413 1411 1411 1412 1411 1411 1411 1411 1411 1412 1412 1412 1414 1414 1416 1417 1417 1418 1418 1418 1419 1420 1421 1422 1423 1424 1426 1428 1430 1432 1434 1436 1438 1440 1442 1444 1446 1448 1451 1453 1456 1459 1463 1467 1470 1473 1475 1476 1478 1480 1483 1485 1487 1489 1492 1495 1498 1500 1503 1505 1506 1508 1510 1512 1514 1516 1517 1519 1520 1522 1523
1417 1415 1419 1422 1423 1422 1420 1417 1416 1417 1417 1416 1415 1415 1414 1414 1414 1413 1412 1412 1412 1412 1412 1412 1413 1413 1413 1414 1415 1415 1416 1418 1418 1418 1419 1419 1420 1421 1421 1422 1423 1425 1426 1427 1429 1431 1432 1434 1437 1439 1441 1443 1445 1448 1450 1453 1457 1461 1465 1467 1470 1474 1476 1476 1477 1479 1482 1484 1487 1490 1493 1496 1498 1501 1503 1505 1506 1508 1510 1511 1513 1515 1517 1518 1520 1521 1522
1420 1420 1423 1424 1423 1422 1421 1420 1419 1419 1417 1417 1417 1416 1416 1415 1416 1416 1415 1414 1414 1414 1413 1414 1414 1414 1414 1415 1416 1416 1417 1417 1418 1418 1419 1420 1420 1421 1421 1422 1423 1425 1427 1428 1429 1430 1433 1434 1437 1439 1441 1442 1445 1448 1450 1453 1457 1461 1464 1466 1468 1472 1475 1477 1477 1479 1482 1485 1488 1491 1494 1497 1500 1502 1504 1505 1506 1508 1509 1511 1512 1514 1516 1518 1519 1521 1522
1423 1423 1424 1425 1424 1423 1422 1421 1420 1420 1419 1419 1419 1418 1418 1417 1417 1418 1418 1417 1416 1415 1416 1415 1415 1415 1416 1416 1416 1417 1417 1418 1419 1419 1420 1421 1421 1421 1422 1422 1423 1425 1427 1429 1430 1432 1434 1436 1438 1440 1442 1444 1446 1448 1450 1453 1456 1459 1463 1466 1468 1471 1474 1476 1478 1480 1482 1486 1489 1492 1495 1498 1501 1503 1504 1506 1507 1508 1509 1510 1512 1514 1516 1517 1519 1520 1522
1424 1426 1427 1427 1425 1425 1424 1423 1422 1421 1421 1421 1421 1421 1420 1420 1420 1420 1419 1418 1417 1417 1417 1417 1417 1417 1417 1417 1418 1418 1418 1419 1419 1420 1421 1421 1422 1422 1423 1423 1424 1426 1427 1430 1432 1434 1435 1438 1440 1442 1444 1446 1449 1450 1451 1453 1456 1459 1462 1465 1467 1470 1473 1476 1478 1481 1483 1486 1489 1493 1496 1499 1501 1503 1505 1506 1507 1508 1509 1510 1512 1514 1516 1517 1518 1520 1521
1425 1427 1428 1427 1426 1426 1425 1424 1424 1423 1423 1424 1423 1423 1423 1422 1422 1421 1420 1420 1419 1418 1418 1418 1418 1418 1418 1418 1419 1419 1420 1420 1421 1422 1422 1423 1423 1424 1424 1425 1426 1427 1428 1430 1433 1435 1437 1439 1442 1444 1447 1449 1452 1455 1456 1456 1457 1460 1463 1465 1467 1471 1473 1475 1478 1482 1485 1487 1490 1493 1496 1499 1501 1503 1505 1506 1507 1509 1509 1511 1512 1514 1515 1517 1518 1520 1521
1427 1427 1428 1427 1426 1426 1426 1426 1426 1426 1426 1426 1425 1425 1425 1424 1422 1422 1421 1420 1419 1419 1419 1419 1419 1419 1419 1419 1420 1420 1421 1422 1422 1423 1424 1425 1425 1426 1426 1426 1427 1428 1428 1430 1434 1437 1440 1442 1445 1448 1450 1452 1454 1457 1460 1461 1460 1461 1464 1466 1468 1471 1473 1476 1479 1482 1485 1488 1491 1494 1496 1499 1501 1503 1505 1506 1507 1509 1510 1512 1514 1515 1517 1518 1519 1521 1522
1429 1428 1427 1426 1426 1428 1429 1428 1427 1427 1427 1427 1426 1425 1425 1424 1424 1423 1422 1421 1420 1420 1419 1419 1419 1420 1420 1420 1421 1422 1422 1422 1423 1424 1425 1426 1427 1428 1428 1428 1428 1429 1430 1432 1435 1438 1441 1444 1447 1449 1451 1453 1454 1456 1460 1462 1463 1463 1465 1467 1469 1471 1474 1477 1480 1483 1486 1489 1491 1494 1497 1499 1501 1503 1504 1506 1507 1509 1510 1512 1515 1517 1518 1519 1520 1522 1523
1428 1427 1426 1426 1427 1429 1430 1429 1428 1428 1428 1427 1426 1426 1426 1425 1425 1424 1423 1422 1421 1421 1420 1420 1421 1421 1421 1422 1422 1422 1423 1423 1424 1425 1426 1427 1428 1429 1430 1429 1430 1431 1433 1435 1437 1438 1440 1444 1447 1448 1451 1453 1455 1457 1459 1461 1464 1465 1466 1468 1470 1473 1476 1478 1481 1483 1486 1489 1492 1495 1497 1499 1501 1503 1504 1505 1507 1509 1511 1513 1515 1517 1519 1520 1522 1523 1524
1426 1426 1427 1427 1427 1428 1430 1430 1429 1429 1428 1427 1426 1426 1426 1426 1426 1425 1424 1423 1423 1422 1421 1421 1421 1422 1423 1423 1423 1423 1424 1424 1425 1426 1427 1427 1428 1430 1431 1431 1431 1432 1434 1436 1439 1440 1442 1444 1447 1449 1451 1454 1456 1458 1460 1461 1464 1466 1468 1469 1471 1474 1477 1479 1482 1484 1487 1489 1492 1495 1497 1499 1501 1503 1504 1505 1507 1509 1511 1513 1515 1517 1519 1520 1522 1523 1524
1426 1427 1428 1428 1428 1429 1430 1429 1429 1429 1428 1427 1427 1426 1426 1426 1426 1425 1425 1424 1423 1423 1422 1421 1422 1422 1423 1423 1423 1424 1424 1425 1426 1427 1427 1427 1428 1430 1433 1434 1434 1434 1436 1439 1441 1444 1445 1446 1448 1450 1452 1455 1457 1459 1460 1462 1464 1466 1469 1471 1473 1476 1478 1480 1483 1485 1487 1490 1493 1495 1497 1499 1501 1503 1504 1506 1507 1509 1511 1513 1515 1517 1518 1520 1522 1523 1524
1427 1428 1428 1429 1429 1430 1430 1430 1429 1429 1428 1428 1427 1427 1426 1426 1426 1426 1425 1424 1424 1423 1423 1422 1422 1422 1423 1423 1424 1424 1424 1425 1426 1428 1429 1428 1428 1429 1433 1436 1435 1436 1438 1441 1444 1447 1449 1449 1450 1452 1454 1456 1458 1459 1461 1463 1465 1467 1470 1473 1476 1478 1480 1482 1484 1486 1488 1491 1493 1496 1498 1500 1502 1503 1505 1507 1508 1510 1511 1513 1514 1516 1518 1520 1521 1523 1524
1429 1429 1430 1430 1430 1430 1430 1430 1430 1430 1430 1429 1428 1427 1427 1427 1427 1427 1426 1425 1425 1424 1423 1423 1423 1423 1423 1423 1424 1424 1425 1426 1427 1428 1429 1430 1430 1431 1433 1436 1438 1440 1441 1442 1443 1447 1450 1451 1452 1454 1455 1457 1459 1460 1462 1464 1466 1468 1471 1474 1477 1479 1481 1484 1485 1487 1490 1492 1494 1496 1498 1500 1502 1504 1506 1508 1509 1511 1512 1513 1515 1516 1518 1520 1521 1522 1523
1431 1431 1430 1430 1431 1431 1431 1432 1432 1432 1431 1430 1429 1428 1427 1427 1426 1426 1426 1425 1425 1424 1424 1424 1423 1423 1423 1424 1424 1424 1425 1426 1427 1428 1430 1431 1433 1434 1434 1436 1439 1441 1442 1443 1445 1447 1450 1452 1454 1454 1456 1458 1459 1461 1463 1465 1467 1470 1472 1475 1478 1480 1482 1484 1486 1488 1491 1493 1495 1497 1499 1501 1503 1505 1507 1509 1510 1511 1512 1514 1515 1517 1518 1519 1521 1522 1523
1432 1431 1431 1431 1431 1432 1432 1433 1433 1432 1432 1431 1430 1429 1428 1427 1427 1426 1426 1425 1425 1425 1424 1424 1424 1424 1424 1424 1424 1425 1425 1426 1427 1428 1430 1431 1433 1435 1437 1438 1440 1442 1443 1445 1446 1449 1451 1453 1454 1455 1456 1458 1459 1461 1464 1466 1468 1471 1473 1476 1478 1480 1482 1484 1487 1489 1491 1494 1496 1497 1499 1501 1503 1505 1507 1508 1510 1511 1513 1514 1516 1517 1518 1519 1520 1521 1522
1433 1432 1432 1432 1433 1433 1433 1433 1433 1433 1432 1432 1431 1430 1429 1427 1427 1427 1426 1426 1425 1425 1425 1424 1424 1424 1424 1425 1425 1426 1426 1427 1427 1428 1430 1431 1432 1434 1437 1438 1439 1441 1443 1445 1446 1449 1451 1453 1454 1455 1456 1458 1459 1461 1464 1466 1469 1471 1474 1476 1479 1481 1483 1485 1487 1489 1491 1494 1495 1497 1499 1501 1503 1505 1506 1508 1509 1511 1513 1515 1516 1517 1518 1519 1520 1520 1521
1433 1433 1433 1433 1434 1434 1433 1433 1433 1433 1432 1432 1431 1430 1429 1428 1427 1427 1427 1426 1426 1426 1425 1425 1425 1425 1425 1425 1425 1426 1427 1428 1428 1429 1430 1431 1432 1433 1435 1435 1436 1437 1439 1442 1444 1447 1450 1452 1454 1455 1456 1458 1460 1462 1464 1467 1469 1472 1474 1477 1479 1482 1484 1486 1488 1490 1491 1493 1495 1497 1499 1501 1503 1504 1506 1507 1509 1511 1513 1514 1515 1516 1517 1518 1519 1520 1521
1434 1434 1434 1434 1434 1434 1434 1433 1433 1433 1433 1432 1431 1430 1430 1429 1428 1427 1427 1426 1426 1426 1426 1425 1425 1426 1425 1426 1426 1427 1428 1429 1429 1430 1431 1432 1433 1434 1435 1436 1437 1438 1440 1442 1445 1447 1450 1452 1453 1454 1456 1458 1460 1462 1465 1468 1470 1473 1475 1478 1480 1482 1485 1486 1488 1490 1492 1494 1495 1497 1499 1500 1502 1504 1505 1507 1509 1511 1512 1514 1515 1516 1517 1518 1519 1520 1521
1434 1435 1435 1435 1435 1434 1434 1434 1434 1433 1433 1432 1432 1431 1430 1430 1429 1428 1427 1427 1427 1427 1426 1426 1426 1426 1426 1427 1427 1428 1429 1429 1430 1431 1431 1432 1433 1434 1436 1437 1438 1440 1443 1445 1447 1449 1451 1453 1453 1454 1455 1458 1460 1463 1466 1468 1471 1473 1476 1478 1481 1483 1485 1487 1488 1490 1492 1493 1495 1497 1498 1500 1502 1503 1505 1507 1509 1510 1512 1513 1514 1515 1516 1517 1518 1519 1520
1435 1435 1435 1435 1435 1435 1435 1434 1434 1434 1433 1433 1432 1432 1431 1430 1429 1428 1428 1427 1427 1427 1427 1427 1427 1427 1427 1428 1429 1429 1430 1430 1431 1431 1432 1433 1434 1435 1436 1438 1439 1441 1443 1446 1448 1451 1452 1453 1454 1455 1456 1458 1460 1463 1465 1468 1471 1473 1475 1478 1481 1483 1485 1487 1488 1490 1491 1493 1495 1496 1498 1499 1501 1503 1505 1507 1508 1510 1511 1512 1513 1514 1515 1516 1518 1519 1520
1436 1435 1436 1436 1436 1436 1436 1435 1435 1434 1434 1433 1433 1432 1431 1430 1430 1429 1428 1428 1428 1428 1428 1428 1428 1428 1428 1429 1430 1430 1431 1431 1432 1432 1433 1434 1435 1435 1437 1438 1440 1441 1444 1446 1448 1451 1452 1453 1454 1455 1457 1459 1461 1463 1465 1468 1470 1473 1475 1477 1480 1482 1485 1487 1489 1490 1492 1493 1495 1496 1497 1499 1501 1503 1505 1506 1508 1509 1510 1511 1512 1513 1514 1516 1517 1518 1519
1437 1436 1437 1437 1437 1436 1436 1435 1435 1435 1434 1433 1433 1432 1432 1431 1430 1429 1429 1428 1428 1428 1428 1428 1429 1429 1429 1430 1431 1431 1432 1432 1433 1434 1434 1435 1436 1436 1438 1439 1440 1442 1444 1446 1448 1451 1452 1453 1454 1456 1458 1460 1462 1464 1466 1468 1470 1473 1476 1478 1480 1483 1485 1487 1489 1491 1492 1493 1495 1496 1497 1499 1501 1503 1504 1506 1507 1508 1509 1510 1511 1513 1514 1515 1516 1518 1519
1438 1437 1437 1437 1437 1437 1436 1436 1436 1435 1434 1434 1433 1432 1432 1431 1430 1430 1430 1429 1429 1429 1429 1429 1429 1429 1430 1430 1431 1432 1432 1433 1434 1434 1435 1436 1436 1437 1438 1440 1441 1443 1445 1446 1448 1450 1452 1453 1455 1457 1459 1461 1463 1465 1467 1469 1471 1474 1476 1478 1480 1483 1485 1487 1489 1491 1492 1493 1495 1496 1498 1499 1501 1503 1504 1506 1507 1508 1509 1510 1511 1513 1514 1515 1516 1518 1519
1438 1438 1438 1438 1438 1438 1437 1437 1436 1436 1435 1434 1434 1433 1432 1432 1431 1431 1430 1430 1430 1429 1429 1429 1429 1430 1431 1431 1432 1432 1433 1433 1434 1435 1435 1436 1437 1438 1439 1441 1442 1444 1446 1447 1449 1451 1452 1453 1455 1457 1460 1462 1464 1465 1467 1470 1472 1475 1477 1479 1481 1483 1485 1487 1489 1491 1493 1494 1495 1497 1498 1500 1502 1503 1505 1506 1508 1509 1509 1510 1511 1513 1514 1515 1516 1517 1519
1439 1439 1439 1439 1439 1439 1438 1437 1437 1436 1436 1435 1434 1434 1433 1433 1432 1432 1431 1431 1431 1430 1430 1430 1430 1430 1431 1432 1432 1433 1433 1433 1434 1435 1436 1437 1438 1439 1440 1442 1444 1445 1447 1449 1450 1451 1453 1454 1455 1458 1461 1463 1465 1466 1468 1471 1473 1475 1478 1480 1482 1484 1485 1487 1489 1491 1493 1494 1496 1497 1499 1501 1503 1504 1506 1507 1508 1509 1510 1511 1512 1513 1514 1515 1517 1518 1519
1439 1439 1439 1439 1439 1439 1439 1438 1438 1437 1436 1436 1435 1434 1434 1433 1433 1432 1432 1432 1432 1431 1430 1430 1430 1431 1431 1432 1433 1433 1434 1434 1435 1436 1437 1438 1439 1440 1441 1443 1445 1447 1448 1450 1451 1452 1454 1456 1457 1460 1462 1464 1466 1468 1470 1472 1474 1476 1478 1480 1482 1484 1486 1488 1490 1491 1493 1495 1496 1498 1500 1502 1503 1505 1506 1508 1509 1510 1511 1512 1513 1514 1515 1516 1517 1519 1520
1439 1440 1440 1440 1440 1439 1439 1439 1438 1438 1437 1437 1436 1435 1435 1434 1433 1433 1433 1433 1432 1432 1431 1431 1431 1431 1432 1433 1433 1434 1434 1435 1436 1437 1438 1439 1440 1441 1442 1444 1446 1448 1450 1451 1453 1454 1456 1458 1460 1462 1464 1466 1468 1469 1471 1473 1475 1477 1479 1481 1483 1484 1486 1488 1490 1492 1494 1496 1497 1499 1500 1502 1504 1505 1507 1508 1509 1510 1512 1513 1514 1515 1516 1517 1518 1519 1520
1440 1440 1440 1440 1440 1440 1440 1440 1439 1438 1438 1438 1437 1436 1435 1435 1434 1434 1434 1434 1433 1433 1432 1432 1432 1432 1433 1433 1434 1434 1435 1436 1437 1438 1439 1440 1441 1442 1444 1445 1448 1450 1451 1453 1455 1456 1458 1460 1462 1464 1465 1467 1469 1471 1473 1474 1476 1478 1480 1482 1483 1485 1487 1489 1491 1493 1495 1497 1498 1500 1501 1503 1504 1506 1507 1508 1510 1511 1512 1513 1514 1516 1517 1517 1518 1519 1520
1440 1440 1441 1441 1441 1440 1440 1440 1440 1439 1439 1438 1438 1437 1436 1436 1435 1435 1435 1435 1435 1434 1434 1434 1433 1433 1434 1434 1435 1435 1436 1437 1438 1439 1440 1441 1443 1445 1446 1447 1449 1451 1453 1455 1457 1458 1460 1462 1464 1466 1467 1469 1471 1472 1474 1475 1477 1479 1481 1483 1485 1487 1488 1490 1492 1494 1496 1497 1499 1500 1502 1503 1505 1506 1507 1509 1510 1511 1512 1513 1515 1516 1517 1517 1518 1519 1519
1440 1441 1441 1441 1441 1441 1441 1441 1440 1440 1440 1439 1438 1438 1437 1436 1436 1436 1436 1436 1436 1435 1435 1435 1435 1435 1435 1436 1436 1437 1438 1438 1439 1440 1441 1443 1445 1447 1449 1450 1452 1454 1455 1457 1458 1460 1462 1464 1466 1468 1469 1470 1471 1473 1475 1476 1478 1480 1482 1484 1486 1488 1490 1491 1493 1495 1496 1498 1499 1500 1502 1503 1505 1506 1507 1509 1510 1510 1512 1513 1514 1515 1516 1517 1518 1518 1519
1440 1441 1441 1441 1441 1441 1441 1441 1441 1441 1440 1440 1439 1439 1438 1437 1437 1437 1437 1437 1437 1436 1436 1437 1437 1437 1437 1438 1438 1439 1440 1441 1441 1442 1443 1444 1446 1449 1451 1452 1454 1456 1458 1459 1460 1462 1464 1466 1468 1469 1470 1472 1473 1475 1476 1478 1480 1481 1483 1486 1488 1489 1491 1492 1494 1496 1497 1498 1499 1500 1502 1503 1505 1506 1507 1509 1510 1510 1511 1513 1514 1515 1515 1516 1517 1518 1519
1440 1441 1441 1441 1441 1441 1441 1441 1441 1441 1441 1440 1440 1439 1439 1438 1437 1437 1437 1438 1438 1438 1438 1438 1438 1439 1439 1440 1440 1441 1442 1443 1444 1445 1446 1447 1448 1451 1453 1454 1456 1458 1459 1461 1463 1464 1466 1467 1469 1471 1472 1474 1476 1477 1479 1481 1482 1484 1486 1488 1489 1491 1492 1494 1495 1496 1498 1499 1499 1500 1502 1503 1505 1506 1507 1509 1510 1511 1512 1513 1513 1514 1515 1516 1517 1518 1518
1441 1441 1441 1442 1442 1442 1442 1442 1442 1441 1441 1441 1441 1440 1439 1438 1438 1438 1438 1439 1439 1439 1439 1440 1440 1441 1441 1442 1442 1443 1444 1445 1446 1448 1449 1450 1451 1453 1455 1456 1458 1460 1462 1463 1465 1466 1468 1469 1470 1472 1474 1476 1478 1480 1482 1483 1485 1486 1488 1489 1491 1492 1493 1495 1496 1497 1498 1499 1500 1501 1502 1503 1505 1506 1508 1509 1510 1511 1512 1513 1513 1514 1515 1515 1516 1517 1517
1441 1441 1441 1442 1442 1442 1442 1442 1442 1442 1442 1442 1441 1441 1440 1439 1439 1439 1439 1440 1440 1440 1441 1441 1442 1443 1443 1444 1445 1445 1446 1446 1448 1450 1451 1452 1453 1455 1457 1458 1460 1462 1464 1466 1467 1468 1470 1471 1472 1474 1476 1478 1480 1482 1483 1485 1486 1488 1489 1490 1491 1493 1494 1496 1497 1498 1499 1500 1501 1502 1503 1504 1505 1507 1508 1509 1510 1511 1512 1513 1513 1514 1514 1515 1515 1516 1516
1441 1441 1442 1442 1442 1442 1442 1443 1443 1442 1442 1442 1442 1441 1441 1440 1440 1440 1440 1441 1441 1442 1442 1443 1444 1444 1445 1446 1447 1448 1448 1449 1450 1451 1453 1455 1456 1457 1459 1461 1462 1464 1466 1467 1469 1470 1472 1473 1474 1476 1478 1479 1481 1483 1485 1486 1487 1488 1490 1491 1493 1494 1495 1496 1498 1499 1500 1501 1502 1503 1504 1505 1506 1507 1508 1509 1510 1511 1512 1512 1513 1513 1514 1514 1514 1515 1516
1441 1441 1442 1442 1442 1442 1443 1443 1443 1443 1443 1443 1442 1442 1441 1441 1441 1441 1441 1442 1442 1443 1443 1444 1445 1446 1447 1448 1448 1449 1451 1452 1452 1453 1455 1457 1458 1460 1461 1463 1465 1466 1468 1470 1471 1472 1474 1475 1477 1478 1480 1481 1483 1484 1486 1487 1488 1489 1490 1492 1493 1494 1495 1497 1498 1499 1500 1501 1502 1504 1504 1505 1506 1507 1508 1509 1510 1510 1511 1512 1512 1513 1513 1514 1514 1515 1515
1441 1442 1442 1442 1442 1443 1443 1443 1444 1444 1444 1443 1443 1443 1442 1442 1442 1442 1442 1442 1443 1444 1444 1445 1446 1447 1448 1449 1450 1451 1452 1453 1454 1455 1457 1458 1460 1461 1463 1465 1467 1469 1471 1472 1473 1475 1476 1478 1479 1480 1481 1483 1484 1485 1487 1488 1489 1490 1491 1492 1494 1495 1496 1497 1498 1499 1501 1502 1503 1504 1505 1506 1507 1508 1508 1509 1510 1510 1511 1511 1512 1512 1513 1513 1513 1514 1514
1441 1442 1442 1442 1443 1443 1443 1444 1444 1444 1444 1444 1444 1444 1443 1443 1443 1443 1443 1443 1444 1445 1445 1446 1447 1448 1449 1450 1451 1452 1453 1454 1455 1456 1458 1459 1460 1462 1465 1467 1469 1471 1473 1474 1475 1477 1478 1479 1481 1482 1483 1484 1485 1486 1487 1488 1489 1491 1492 1493 1494 1496 1497 1498 1499 1500 1501 1502 1503 1505 1505 1506 1507 1508 1508 1509 1509 1510 1510 1511 1511 1512 1512 1512 1513 1513 1513